Weather in Ponta Grossa

Brazil     25°05′35″S   50°09′11″W
temp.,
°C
wind,
m/s
gust,
m/s
humid.,
%
clouds,
%
prec.,
mm/h
press.,
hPa
HPBL,
m
19 april, mon
mon1900:00+13ese26940 0.0 1017142
03:00+12se23962 0.0 101653
06:00+13ese4692100 0.0 1017380
09:00+15se458198 0.0 1019656
12:00+18se347399 0.0 1018912
15:00+18s3375100 0.0 1017556
18:00+16s22872 0.0 101730
21:00+14e11890 0.0 101811
20 april, tue
tue2000:00+13e38940 0.0 1018174
03:00+12ese39951 0.0 1017232
06:00+12ese349785 0.0 1018126
09:00+15ese4682100 0.0 1019683
12:00+19sse346845 0.0 1019960
15:00+22s44590 0.0 10161096
18:00+17ese22737 0.0 101619
21:00+14e39890 0.0 1019177
21 april, wed
wed2100:00+13ese410950 0.0 1019259
03:00+11ese369828 0.0 1018147
06:00+13ese478994 0.0 1019495
09:00+16ese567291 0.0 1020896
12:00+21se345721 0.0 10181446
15:00+20s566688 0.0 1016480
18:00+17se497580 0.1 1017330
21:00+15ese410860 0.1 1019318
22 april, thu
thu2200:00+12se37966 0.0 1019169
03:00+14ese478791 0.0 1018495
06:00+15ese467597 0.0 1018569
09:00+17ese347345 0.0 1019816
12:00+20sse326499 0.0 10181118
15:00+20se336469 0.1 1016747
18:00+15sse34840 0.0 101765
21:00+13ese33880 0.0 101848
23 april, fri
fri2300:00+13e39950 0.0 1018215
03:00+12e11964 0.0 101712
06:00+11ese12962 0.0 101812
09:00+15e23838 0.0 1018342
12:00+21sse11581 0.0 1016899
15:00+22sse22524 0.0 10131090
18:00+17e2267100 0.0 101320
21:00+15ne227118 0.0 101418